Regional Weather Roundup
Issued by NWS

Home | Current Version | Previous Version | Text Only | Print | Product List | Glossary Off
Versions: 1 2 3 4 5 6 7 8 9 10 11 12 13 14 15 16 17 18 19 20 21 22 23 24 25 26 27 28 29 30 31 32 33 34 35 36 37 38 39 40 41 42 43 44 45 46 47 48 49 50

000
ASUS45 KBOI 281510
RWRID

IDAHO REGIONAL WEATHER ROUNDUP
NATIONAL WEATHER SERVICE BOISE ID
900 AM MDT THU MAY 28 2015

NOTE: "FAIR" INDICATES FEW OR NO CLOUDS BELOW 12000 FEET
WITH NO SIGNIFICANT WEATHER AND/OR OBSTRUCTIONS TO VISIBILITY

IDZ012-014-281600-
SOUTHWEST IDAHO


CITY           SKY/WX    TMP DP  RH WIND       PRES   REMARKS
BOISE          SUNNY     60  45  57 CALM      30.10R
CALDWELL       SUNNY     61  43  51 N6        30.11R
MOUNTAIN HOME  SUNNY     60  43  54 NW7       30.09R
$$

IDZ016-017-281600-
SOUTHCENTRAL IDAHO


CITY           SKY/WX    TMP DP  RH WIND       PRES   REMARKS
BURLEY         SUNNY     55  46  71 VRB3      30.10R
JEROME         SUNNY     53  46  77 S3        30.12R
TWIN FALLS     SUNNY     60  45  57 SW10      30.09R
$$

IDZ019>023-281600-
SOUTHEAST IDAHO


CITY           SKY/WX    TMP DP  RH WIND       PRES   REMARKS
IDAHO FALLS    CLOUDY    52  47  83 N7        30.14R
POCATELLO      MOSUNNY   55  49  80 NW6       30.13R
REXBURG        CLOUDY    49  46  90 E5        30.13S
$$

IDZ006-010-011-018-031-032-281600-
CENTRAL IDAHO MOUNTAINS


CITY           SKY/WX    TMP DP  RH WIND       PRES   REMARKS
MCCALL         SUNNY     48  41  76 CALM      30.14R
HAILEY         MOSUNNY   48  39  71 NW7       30.15R
STANLEY          N/A     39  36  89 CALM      30.21R
SALMON         CLOUDY    52  46  82 CALM      30.13R
CHALLIS        MOSUNNY   49  41  74 SE3       30.15R
$$

IDZ002-004-006-007-026-281600-
NORTHERN IDAHO


CITY           SKY/WX    TMP DP  RH WIND       PRES   REMARKS
LEWISTON       SUNNY     60  51  72 NE10      30.10R
LOWELL           N/A     55  48  77 VRB3      30.16R
COEUR D`ALENE  MOSUNNY   61  52  72 S9        30.08S
MULLAN PASS    CLOUDY    46  44  93 VRB3      30.18R
$$


USA.gov is the U.S. government's official web portal to all federal, state and local government web resources and services.